Regional Weather Roundup
Issued by NWS Portland, ME

Home | Current Version | Previous Version | Text Only | Print | Product List | Glossary On
Versions: 1 2 3 4 5 6 7 8 9 10 11 12 13 14 15 16 17 18 19 20 21 22 23 24 25 26 27 28 29 30 31 32 33 34 35 36 37 38 39 40 41 42 43 44 45 46 47 48 49 50
000
ASUS41 KGYX 252205
RWRGYX
WEATHER ROUNDUP FOR MAINE AND NEW HAMPSHIRE
NATIONAL WEATHER SERVICE GRAY ME
500 PM EST TUE NOV 25 2014

MEZ002-005-006-010-012-015-018-020-021-024-026-027-029-252300-
MAINE

CITY           SKY/WX    TMP DP  RH WIND       PRES   REMARKS
PORTLAND       CLOUDY    54  27  35 W8        29.89R
SANFORD        CLOUDY    52  25  35 W9        29.90R
BAR HARBOR     CLOUDY    52  43  71 SW6       29.83R
WISCASSET      CLOUDY    53  29  39 W6        29.88R
ROCKLAND       CLOUDY    54  37  54 SW13      29.83R
FRYEBURG       CLOUDY    49  23  36 VRB7      29.88R
LEWISTONAUBURN CLOUDY    52  23  32 SW13G21   29.86R
AUGUSTA        CLOUDY    52  26  36 SW6       29.85R
WATERVILLE     CLOUDY    50  27  40 W5        29.82R
BANGOR         CLOUDY    52  32  46 W5        29.82R
GREENVILLE       N/A     42  28  57 NW8       29.79R
MILLINOCKET    PTCLDY    48  30  49 W8        29.81R
HOULTON        PTCLDY    45  29  53 W6        29.78R
PRESQUE ISLE   MOCLDY    46  27  46 W18G30    29.77R
FRENCHVILLE    CLOUDY    40  26  57 W15G31    29.74R
CARIBOU        MOCLDY    44  28  53 W14G26    29.76R
$$

NHZ002-005-008-009-011-012-014-252300-
NEW HAMPSHIRE

CITY           SKY/WX    TMP DP  RH WIND       PRES   REMARKS
PORTSMOUTH     CLOUDY    55  26  32 W8        29.90R
ROCHESTER      CLOUDY    53  25  33 VRB6      29.90R
NASHUA         CLOUDY    55  25  31 W8        29.94R
MANCHESTER     CLOUDY    54  23  30 W8        29.92R
CONCORD        CLOUDY    50  23  34 W12       29.93R
LACONIA        CLOUDY    48  25  40 W9G18     29.91R
PLYMOUTH       FAIR      47  31  53 CALM      29.93R
BERLIN         MOCLDY    45  26  47 W8G18     29.88R
WHITEFIELD     MOCLDY    44  25  47 W7        29.91R
JAFFREY        CLOUDY    48  23  37 VRB5      29.95R
LEBANON        MOCLDY    46  25  43 S5        29.94R
MT WASHINGTON  MOCLDY    19  18  93 W64G71      N/A  WCI  -6
$$

VTZ005-007-008-252300-
VERMONT

CITY           SKY/WX    TMP DP  RH WIND       PRES   REMARKS
ST JOHNSBURY     N/A     46  25  43 MISG      29.91R
MONTPELIER     MOCLDY    41  22  46 W5        29.95R
BURLINGTON     MOCLDY    45  23  42 SW8       29.93S
$$

MAZ007-012-024-CTZ003-RIZ002-NYZ038-NYZ072-252300-
SOUTHERN NEW ENGLAND AND NY

CITY           SKY/WX    TMP DP  RH WIND       PRES   REMARKS
BOSTON         CLOUDY    56  26  31 SW14G22   29.95R
WORCESTER      CLOUDY    48  26  42 SW12      29.94R
NANTUCKET      CLOUDY    54  44  69 W12       29.99R
PROVIDENCE     CLOUDY    54  30  40 SW8       29.98R
HARTFORD       CLOUDY    51  27  39 SW9       29.98R
ALBANY         MOCLDY    47  25  42 SW5       29.98R
NEW YORK CITY  CLOUDY    53  28  38 W8        30.02R
$$

ANZ081-ANZ082-ANZ150-NHZ014-MEZ023>029-252300-
COASTAL MARINE OBSERVATIONS

STATION/POSITION TIME  TEMP    WIND        PRES    WAVE
                       AIR SEA DIR/SP/G            HT/PER
                 (UTC) (F)     (DEG/KT/KT) (MB)    (FT/S)
MOUNT DESERT ROC 2200   53                 1010.3R
MATINICUS ROCK   2100          230/ 18/ 20 1009.6S
PORTLAND WX BUOY 2150   54 50  250/ 12/ 16 1011.7R   4/10
WELLS            2100   56 48  280/  4/  6 1010.7R
ISLE OF SHOALS   2100   58     240/ 19/ 20 1010.8R
JEFFREYS LEDGE   2121      51                N/A     5/10
CASHES LEDGE BUO 2150   54 51  230/ 14/ 16 1011.4R   8/10
$$

.............KEY..............
   WCI - WIND CHILL
   TC  - TEMPERATURE IN CELSIUS
   VSB - VISIBILITY IN MILES
   HX  - HEAT INDEX
   FAIR- INDICATES FEW OR NO CLOUDS BELOW 12,000 FT, WITH NO
         SIGNIFICANT WEATHER AND/OR OBSTRUCTIONS TO VISIBILITY.





USA.gov is the U.S. government's official web portal to all federal, state and local government web resources and services.